OBJECT A, 60745

Orbit data source: Space-Track

You're viewing an Uncataloged Satellite

Recently launched and/or uncataloged satellites may have evolving metadata. Metadata may include but not limited to: Owner, Maufacturer, Bus, Motor, and Mission.

OBJECT A, 60745 is a satellite owned by Yunyao yuhang (CN) in SSO that was launched on Thu, 29 Aug 2024 UTC via a GUSHENXING 1 launch vehicle from the Yellow Sea Launch Area, China (YSLA). Unknown objects in Earth's orbit typically refer to objects detected orbiting the Earth but have not yet been identified or cataloged. These objects could be anything from previously untracked satellites, spent rocket stages, debris from satellite collisions, or even natural meteoroids temporarily captured by Earth's gravity.

Loading next visibility...
Identifier
60745, 2024-153A
Orbit
SSO
Country
Flag of CNCN / PRC
Related business
None
Manufacturer
Changguang WJ
Mission
Operational Commercial Weather
Bus & Motor
YY-1, Unknown motor
Mass
~50 kg wet, ~50 kg dry
Launch date (UTC)
2024-08-29 (1 year ago)
Launch vehicle
GUSHENXING 1
Launch site
Yellow Sea Launch Area, China (YSLA)
Object type
Unknown
Shape & HBR
Box + 1 Pan, 2.5 m
Radar Cross Section
5.339 m², Medium (>0.1 m² and < 1m²)

Expand to show TLE details & history
Last TLE update: 16 hours ago

TLE from 16 hours ago
0 OBJECT A
1 60745U 24153A   25242.32396200  .00015758  00000-0  66422-3 0  9996
2 60745  97.6471   8.1646 0013294  96.5688 263.7062 15.23335429 55502
Epoch: 2025-08-30T07:46Z
TLE epoch observation values (Epoch: 2025-08-30T07:46:30.316Z)
Latitude
-0.00005°
Longitude
-87.22161°
Altitude
499.89 km
Speed
7.614 km/s
True Right ascension
00h 32m 39s
True Declination
0° 00' 00"
Sunlit
Object was in full shadow at epoch
Visualization orbit readout
Latitude
Unknown
Longitude
Unknown
Altitude
Unknown
Speed
Unknown
Apparent Right ascension
Unknown
Apparent Declination
Unknown
Sunlit
N/A
Visualization observer readout
Local Sidereal Time
15:35:52
Azimuth
Unknown
Elevation
Unknown
Doppler factor
Unknown
Orbital elements
Apogee altitude
501.894 km
Perigee altitude
483.626 km
Semi-major axis
6,870.897 km
Eccentricity
0.00133
Inclination
97.6471°
RAAN
8.1646°
Arg. of periapsis
96.5688°
True anomaly
263.55481°
Mean anomaly
263.7062°
Eccentric anomaly
263.6305°
Mean motion
3.81086 °/min
Orbital period
94.47 mins
BSTAR
0.00066422
Loading maneuver chart data...
Computing Atmospheric mass density...
Loading historical data...
Loading historical data...
Loading historical data...
Loading historical data...
Loading historical data...
Loading historical data...
Loading historical data...

Documentation

Showing up to 5 results
|